PST,Max TemperatureF,Mean TemperatureF,Min TemperatureF,Max Dew PointF,MeanDew PointF,Min DewpointF,Max Humidity, Mean Humidity, Min Humidity, Max Sea Level PressureIn, Mean Sea Level PressureIn, Min Sea Level PressureIn, Max VisibilityMiles, Mean VisibilityMiles, Min VisibilityMiles, Max Wind SpeedMPH, Mean Wind SpeedMPH, Max Gust SpeedMPH,PrecipitationIn, CloudCover, Events, WindDirDegrees
2013-11-1,52,42,32,41,36,32,100,83,66,30.34,30.24,30.01,10,5,0,9,2,13,0.00,3,Fog,72
2013-11-2,59,50,41,46,35,24,93,64,35,29.97,29.79,29.69,10,10,5,29,6,37,0.10,4,Rain,167
2013-11-3,49,42,34,31,28,23,82,61,39,30.06,29.97,29.88,10,10,10,23,5,26,T,7,Rain,243
2013-11-4,46,38,30,34,30,25,96,73,49,30.25,30.13,30.03,10,10,7,13,3,16,0.01,6,Rain,132
2013-11-5,42,35,28,35,30,24,92,76,60,30.24,30.20,30.16,10,9,2,22,7,29,0.07,7,Rain-Snow,109
2013-11-6,49,43,37,39,37,35,92,79,66,30.39,30.33,30.21,10,10,4,13,4,22,T,7,Rain,73
2013-11-7,52,48,43,45,39,33,93,77,60,30.22,29.97,29.83,10,9,2,16,11,20,0.28,7,Rain,118
2013-11-8,53,45,36,35,33,29,82,63,44,30.20,30.09,29.97,10,10,10,15,4,22,0.00,5,,213
2013-11-9,49,41,33,38,35,31,89,75,61,30.24,30.18,30.12,10,10,10,9,3,13,0.00,4,,88
2013-11-10,53,47,40,39,38,37,83,71,59,30.24,30.16,30.11,10,10,10,7,1,10,T,2,,105
2013-11-11,55,46,37,42,38,35,92,78,64,30.35,30.28,30.25,10,9,5,5,1,10,0.00,1,,171
2013-11-12,47,42,36,42,38,35,100,88,76,30.40,30.28,30.20,10,4,0,9,2,12,0.01,3,Fog-Rain,238
2013-11-13,44,40,35,42,38,34,100,93,86,30.43,30.38,30.31,8,1,0,8,1,8,0.00,1,Fog,154
2013-11-14,42,39,35,37,36,33,100,90,79,30.28,30.08,29.95,9,3,0,7,3,8,0.00,6,Fog,176
2013-11-15,47,41,34,38,34,32,100,79,58,29.98,29.80,29.39,10,4,0,17,3,23,0.19,8,Fog-Rain,213
2013-11-16,48,44,39,34,30,26,70,58,45,29.72,29.48,29.28,10,10,10,25,12,38,0.02,7,Rain,209
2013-11-17,51,45,39,35,31,28,67,55,42,29.98,29.91,29.74,10,10,10,23,8,30,T,6,Rain,187
2013-11-18,50,44,38,36,32,27,70,58,45,29.99,29.90,29.75,10,10,10,18,5,22,T,3,Rain,111
2013-11-19,56,51,46,41,37,33,68,60,51,29.78,29.70,29.67,10,10,10,26,13,32,0.01,8,Rain,208
2013-11-20,46,36,25,31,13,6,60,45,29,30.46,30.21,29.81,10,10,10,28,8,33,0.00,2,,269
2013-11-21,36,27,18,19,13,7,68,55,42,30.75,30.66,30.48,10,10,10,7,1,8,0.00,0,,161
2013-11-22,37,27,17,19,16,11,84,66,47,30.83,30.75,30.68,10,10,10,6,1,12,0.00,0,,171
2013-11-23,37,28,18,21,18,13,84,68,52,30.66,30.54,30.40,10,10,10,7,1,8,0.00,0,,173
2013-11-24,40,30,19,23,20,16,91,72,52,30.43,30.37,30.31,10,7,0,8,2,8,0.00,1,Fog,147
2013-11-25,43,34,24,27,24,20,85,69,53,30.51,30.45,30.41,10,9,6,7,1,7,0.00,0,,197
2013-11-26,40,32,23,28,24,19,92,78,64,30.41,30.32,30.25,10,6,0,8,1,9,0.00,1,Fog,255
2013-11-27,31,28,25,29,26,22,92,87,81,30.26,30.20,30.11,8,1,0,5,0,6,0.00,3,Fog,215
2013-11-28,32,31,29,28,27,25,92,85,78,30.30,30.23,30.16,2,0,0,6,1,14,T,8,Fog,185
2013-11-29,32,31,29,30,27,24,92,85,78,30.35,30.30,30.24,8,3,0,7,2,9,0.01,8,Fog-Rain,127
2013-11-30,42,37,32,36,33,28,92,86,79,30.36,30.29,30.19,8,5,2,6,1,7,0.01,8,,65